GLT1 KBFI-KCVG

Flight info

Callsign GLT1
Flight time 3h 28m
Altitude 39000
Route NORMY MODDA STEVS FINUT KUGTE KUBLH KU03S KD90U RAP J151 OVR LMN STL DAAVE SARGO5
Aircraft C750/M-VGDW/C

Departure

Time 2026-04-26 19:32
Airport King County International Airport - Boeing Field (KBFI)

Arrival

Time 2026-04-26 23:00
Airport Cincinnati Northern Kentucky International Airport (KCVG)
Time Latitude Longitude Altitude Speed Heading
2026-04-26 19:21 47.53769 -122.30513 24 ft 0 kts 143°
2026-04-26 19:29 47.53762 -122.30505 24 ft 5 kts 146°
2026-04-26 19:29 47.53730 -122.30533 26 ft 6 kts 230°
2026-04-26 19:29 47.53737 -122.30597 24 ft 8 kts 321°
2026-04-26 19:29 47.53794 -122.30647 24 ft 11 kts 330°
2026-04-26 19:30 47.53868 -122.30710 25 ft 14 kts 330°
2026-04-26 19:30 47.53956 -122.30785 26 ft 16 kts 330°
2026-04-26 19:30 47.54045 -122.30866 27 ft 14 kts 321°
2026-04-26 19:30 47.54095 -122.30927 25 ft 13 kts 318°
2026-04-26 19:31 47.54075 -122.31055 24 ft 10 kts 240°
2026-04-26 19:31 47.54024 -122.31109 26 ft 11 kts 162°
2026-04-26 19:31 47.53808 -122.30928 23 ft 80 kts 150°
2026-04-26 19:31 47.53073 -122.30307 32 ft 153 kts 150°
2026-04-26 19:32 47.52053 -122.29451 326 ft 178 kts 150°
2026-04-26 19:32 47.50940 -122.28521 995 ft 188 kts 150°
2026-04-26 19:32 47.49777 -122.27535 1776 ft 197 kts 149°
2026-04-26 19:32 47.48513 -122.26450 2091 ft 231 kts 150°
2026-04-26 19:33 47.47002 -122.25174 2030 ft 262 kts 150°
2026-04-26 19:33 47.45429 -122.23853 2010 ft 261 kts 150°
2026-04-26 19:33 47.43853 -122.22526 2011 ft 261 kts 150°
2026-04-26 19:33 47.42315 -122.21067 1910 ft 271 kts 137°
2026-04-26 19:34 47.41467 -122.18567 2678 ft 266 kts 95°
2026-04-26 19:34 47.41525 -122.15950 4059 ft 254 kts 85°
2026-04-26 19:34 47.41715 -122.13252 4751 ft 271 kts 84°
2026-04-26 19:34 47.41852 -122.10481 5713 ft 271 kts 87°
2026-04-26 19:35 47.41913 -122.07676 6550 ft 276 kts 88°
2026-04-26 19:35 47.41987 -122.04813 7468 ft 280 kts 87°
2026-04-26 19:35 47.42083 -122.01919 8425 ft 284 kts 86°
2026-04-26 19:35 47.42179 -121.98976 9333 ft 289 kts 86°
2026-04-26 19:36 47.42272 -121.95989 10187 ft 293 kts 86°
2026-04-26 19:36 47.42301 -121.95010 10379 ft 298 kts 86°
2026-04-26 19:36 47.42459 -121.89531 10681 ft 337 kts 85°
2026-04-26 19:36 47.42585 -121.85971 10907 ft 355 kts 85°
2026-04-26 19:37 47.42675 -121.82328 11745 ft 353 kts 86°
2026-04-26 19:37 47.42762 -121.78746 12500 ft 354 kts 85°
2026-04-26 19:37 47.42868 -121.75090 13113 ft 359 kts 85°
2026-04-26 19:37 47.42950 -121.71385 13694 ft 363 kts 88°
2026-04-26 19:38 47.42862 -121.67624 14288 ft 367 kts 89°
2026-04-26 19:38 47.42820 -121.63825 14897 ft 370 kts 88°
2026-04-26 19:38 47.42789 -121.60014 15423 ft 373 kts 88°
2026-04-26 19:38 47.42724 -121.56205 15911 ft 378 kts 89°
2026-04-26 19:39 47.42625 -121.52307 16512 ft 382 kts 90°
2026-04-26 19:39 47.42091 -121.48419 16970 ft 390 kts 102°
2026-04-26 19:39 47.41364 -121.44550 17600 ft 392 kts 102°
2026-04-26 19:39 47.40667 -121.40629 18159 ft 396 kts 101°
2026-04-26 19:40 47.39986 -121.36658 18737 ft 400 kts 101°
2026-04-26 19:40 47.39279 -121.32677 19313 ft 403 kts 102°
2026-04-26 19:40 47.38548 -121.28662 19908 ft 406 kts 102°
2026-04-26 19:40 47.37828 -121.24659 20476 ft 410 kts 102°
2026-04-26 19:41 47.37105 -121.20585 21047 ft 413 kts 102°
2026-04-26 19:41 47.36366 -121.16468 21618 ft 416 kts 102°
2026-04-26 19:41 47.35612 -121.12333 22048 ft 418 kts 102°
2026-04-26 19:41 47.35357 -121.10933 22172 ft 421 kts 102°
2026-04-26 19:42 47.34107 -121.03959 23033 ft 425 kts 102°
2026-04-26 19:42 47.33339 -120.99724 23477 ft 429 kts 102°
2026-04-26 19:42 47.32557 -120.95460 23994 ft 432 kts 103°
2026-04-26 19:42 47.31772 -120.91167 24474 ft 435 kts 102°
2026-04-26 19:43 47.30984 -120.86839 24948 ft 438 kts 102°
2026-04-26 19:43 47.30188 -120.82480 25431 ft 441 kts 103°
2026-04-26 19:43 47.29381 -120.78094 25912 ft 444 kts 103°
2026-04-26 19:43 47.28579 -120.73750 26362 ft 447 kts 103°
2026-04-26 19:44 47.27761 -120.69319 26845 ft 450 kts 103°
2026-04-26 19:44 47.26936 -120.64851 27294 ft 454 kts 103°
2026-04-26 19:44 47.26101 -120.60342 27760 ft 457 kts 103°
2026-04-26 19:44 47.25260 -120.55826 28220 ft 459 kts 103°
2026-04-26 19:45 47.24525 -120.51242 28610 ft 461 kts 98°
2026-04-26 19:45 47.23947 -120.46593 29072 ft 463 kts 97°
2026-04-26 19:45 47.23351 -120.41913 29490 ft 466 kts 98°
2026-04-26 19:45 47.22729 -120.37222 29916 ft 469 kts 98°
2026-04-26 19:46 47.22104 -120.32505 30329 ft 471 kts 98°
2026-04-26 19:46 47.21487 -120.27749 30692 ft 474 kts 98°
2026-04-26 19:46 47.21079 -120.24588 30994 ft 475 kts 98°
2026-04-26 19:46 47.20454 -120.19831 31633 ft 472 kts 98°
2026-04-26 19:47 47.19620 -120.13568 32326 ft 471 kts 98°
2026-04-26 19:47 47.19407 -120.11969 32493 ft 471 kts 98°
2026-04-26 19:47 47.18569 -120.05634 33198 ft 471 kts 98°
2026-04-26 19:47 47.17738 -119.99383 33900 ft 469 kts 98°
2026-04-26 19:48 47.17311 -119.96203 34243 ft 469 kts 99°
2026-04-26 19:48 47.16686 -119.91552 34644 ft 471 kts 99°
2026-04-26 19:48 47.16050 -119.86831 35107 ft 471 kts 99°
2026-04-26 19:48 47.15411 -119.82099 35580 ft 471 kts 99°
2026-04-26 19:49 47.14770 -119.77371 36028 ft 472 kts 99°
2026-04-26 19:49 47.14127 -119.72635 36463 ft 473 kts 99°
2026-04-26 19:49 47.13483 -119.67911 36882 ft 474 kts 99°
2026-04-26 19:49 47.12831 -119.63168 37444 ft 471 kts 99°
2026-04-26 19:50 47.12187 -119.58474 38113 ft 466 kts 99°
2026-04-26 19:50 47.11545 -119.53799 38481 ft 468 kts 99°
2026-04-26 19:50 47.10895 -119.49088 38792 ft 473 kts 99°
2026-04-26 19:50 47.10233 -119.44310 38850 ft 482 kts 100°
2026-04-26 19:51 47.08868 -119.34530 38868 ft 502 kts 100°
2026-04-26 19:51 47.07440 -119.24334 38873 ft 517 kts 100°
2026-04-26 19:52 47.05961 -119.13877 38865 ft 528 kts 100°
2026-04-26 19:52 47.04452 -119.03254 38866 ft 535 kts 101°
2026-04-26 19:53 47.02920 -118.92572 38864 ft 534 kts 101°
2026-04-26 19:53 47.01391 -118.81960 38862 ft 535 kts 101°
2026-04-26 19:54 46.99828 -118.71207 38862 ft 537 kts 101°
2026-04-26 19:54 46.98274 -118.60581 38870 ft 537 kts 101°
2026-04-26 19:55 46.96702 -118.49898 38861 ft 536 kts 101°
2026-04-26 19:55 46.95116 -118.39217 38857 ft 537 kts 101°
2026-04-26 19:56 46.93522 -118.28546 38849 ft 537 kts 102°
2026-04-26 19:56 46.91916 -118.17865 38854 ft 537 kts 102°
2026-04-26 19:57 46.90300 -118.07202 38868 ft 538 kts 102°
2026-04-26 19:57 46.88682 -117.96559 38860 ft 538 kts 102°
2026-04-26 19:58 46.87039 -117.85880 38863 ft 539 kts 102°
2026-04-26 19:58 46.85394 -117.75201 38868 ft 538 kts 102°
2026-04-26 19:59 46.83733 -117.64532 38863 ft 539 kts 103°
2026-04-26 19:59 46.82077 -117.53939 38865 ft 538 kts 103°
2026-04-26 20:00 46.80394 -117.43264 38866 ft 538 kts 103°
2026-04-26 20:00 46.78707 -117.32609 38867 ft 539 kts 103°
2026-04-26 20:01 46.77006 -117.21961 38865 ft 539 kts 103°
2026-04-26 20:01 46.75300 -117.11318 38873 ft 539 kts 103°
2026-04-26 20:02 46.73244 -117.00863 38858 ft 540 kts 108°
2026-04-26 20:02 46.71334 -116.92120 38861 ft 540 kts 107°
2026-04-26 20:03 46.68801 -116.79956 38873 ft 540 kts 108°
2026-04-26 20:03 46.66535 -116.69528 38853 ft 540 kts 108°
2026-04-26 20:04 46.64317 -116.59086 38846 ft 539 kts 108°
2026-04-26 20:04 46.62052 -116.48671 38845 ft 541 kts 108°
2026-04-26 20:05 46.59810 -116.38303 38846 ft 540 kts 108°
2026-04-26 20:05 46.57538 -116.27888 38848 ft 540 kts 108°
2026-04-26 20:06 46.55252 -116.17474 38851 ft 540 kts 108°
2026-04-26 20:06 46.52958 -116.07049 38851 ft 542 kts 108°
2026-04-26 20:07 46.50656 -115.96654 38845 ft 541 kts 108°
2026-04-26 20:07 46.48359 -115.86327 38842 ft 541 kts 109°
2026-04-26 20:08 46.46035 -115.75932 38848 ft 541 kts 109°
2026-04-26 20:08 46.43703 -115.65548 38845 ft 541 kts 109°
2026-04-26 20:09 46.41361 -115.55183 38844 ft 540 kts 109°
2026-04-26 20:09 46.39016 -115.44836 38843 ft 541 kts 109°
2026-04-26 20:10 46.36655 -115.34488 38846 ft 541 kts 109°
2026-04-26 20:10 46.34289 -115.24149 38844 ft 541 kts 109°
2026-04-26 20:11 46.32867 -115.13459 38836 ft 542 kts 95°
2026-04-26 20:12 46.32311 -114.97100 38846 ft 543 kts 96°
2026-04-26 20:12 46.31649 -114.86285 38850 ft 544 kts 94°
2026-04-26 20:13 46.31207 -114.75370 38840 ft 543 kts 95°
2026-04-26 20:13 46.30567 -114.64470 38837 ft 544 kts 95°
2026-04-26 20:14 46.30059 -114.53572 38845 ft 544 kts 95°
2026-04-26 20:14 46.29439 -114.42635 38843 ft 545 kts 95°
2026-04-26 20:15 46.28875 -114.31783 38841 ft 545 kts 95°
2026-04-26 20:15 46.28263 -114.20849 38841 ft 545 kts 96°
2026-04-26 20:16 46.27656 -114.09920 38840 ft 545 kts 95°
2026-04-26 20:16 46.27031 -113.98991 38834 ft 545 kts 96°
2026-04-26 20:17 46.26399 -113.88054 38843 ft 546 kts 96°
2026-04-26 20:17 46.25762 -113.77177 38836 ft 545 kts 96°
2026-04-26 20:18 46.25103 -113.66245 38833 ft 546 kts 96°
2026-04-26 20:18 46.24441 -113.55310 38839 ft 546 kts 96°
2026-04-26 20:19 46.23765 -113.44389 38837 ft 545 kts 96°
2026-04-26 20:19 46.23084 -113.33549 38851 ft 545 kts 96°
2026-04-26 20:20 46.22391 -113.22632 38859 ft 546 kts 96°
2026-04-26 20:20 46.21684 -113.11714 38851 ft 546 kts 97°
2026-04-26 20:21 46.20967 -113.00803 38852 ft 546 kts 97°
2026-04-26 20:21 46.20240 -112.89862 38854 ft 546 kts 97°
2026-04-26 20:22 46.19500 -112.78940 38862 ft 546 kts 97°
2026-04-26 20:22 46.18760 -112.68100 38855 ft 546 kts 97°
2026-04-26 20:23 46.17998 -112.57180 38846 ft 547 kts 98°
2026-04-26 20:23 46.17229 -112.46244 38847 ft 547 kts 98°
2026-04-26 20:24 46.16446 -112.35315 38847 ft 547 kts 98°
2026-04-26 20:24 46.15658 -112.24381 38854 ft 548 kts 98°
2026-04-26 20:25 46.14853 -112.13449 38859 ft 547 kts 98°
2026-04-26 20:25 46.14040 -112.02515 38871 ft 548 kts 98°
2026-04-26 20:26 46.13222 -111.91657 38879 ft 548 kts 98°
2026-04-26 20:26 46.12387 -111.80722 38894 ft 548 kts 98°
2026-04-26 20:27 46.11542 -111.69790 38892 ft 547 kts 98°
2026-04-26 20:27 46.10689 -111.58874 38897 ft 548 kts 99°
2026-04-26 20:28 46.09827 -111.48021 38909 ft 549 kts 99°
2026-04-26 20:28 46.08952 -111.37112 38903 ft 547 kts 99°
2026-04-26 20:29 46.08066 -111.26202 38892 ft 549 kts 99°
2026-04-26 20:29 46.07172 -111.15296 38887 ft 548 kts 99°
2026-04-26 20:30 46.06262 -111.04386 38893 ft 548 kts 99°
2026-04-26 20:30 46.05348 -110.93485 38891 ft 548 kts 99°
2026-04-26 20:31 46.04418 -110.82571 38892 ft 548 kts 99°
2026-04-26 20:31 46.03479 -110.71722 38893 ft 549 kts 100°
2026-04-26 20:32 46.01734 -110.61098 38896 ft 545 kts 109°
2026-04-26 20:32 45.99705 -110.50576 38906 ft 546 kts 107°
2026-04-26 20:33 45.97802 -110.40004 38906 ft 545 kts 108°
2026-04-26 20:33 45.95774 -110.29479 38910 ft 546 kts 108°
2026-04-26 20:34 45.93829 -110.18938 38928 ft 545 kts 108°
2026-04-26 20:34 45.92145 -110.10198 38926 ft 546 kts 109°
2026-04-26 20:35 45.90158 -109.99674 38926 ft 545 kts 108°
2026-04-26 20:35 45.88136 -109.89168 38927 ft 545 kts 109°
2026-04-26 20:36 45.86120 -109.78667 38927 ft 545 kts 108°
2026-04-26 20:36 45.84098 -109.68243 38933 ft 545 kts 109°
2026-04-26 20:37 45.82054 -109.57747 38933 ft 546 kts 109°
2026-04-26 20:37 45.80004 -109.47262 38942 ft 546 kts 109°
2026-04-26 20:38 45.77950 -109.36831 38942 ft 547 kts 109°
2026-04-26 20:38 45.75881 -109.26359 38933 ft 546 kts 109°
2026-04-26 20:39 45.73797 -109.15887 38931 ft 547 kts 109°
2026-04-26 20:39 45.71699 -109.05405 38931 ft 547 kts 109°
2026-04-26 20:40 45.69598 -108.94943 38938 ft 547 kts 109°
2026-04-26 20:40 45.67500 -108.84556 38951 ft 547 kts 109°
2026-04-26 20:41 45.65373 -108.74105 38955 ft 547 kts 109°
2026-04-26 20:41 45.63241 -108.63642 38947 ft 548 kts 109°
2026-04-26 20:42 45.61096 -108.53205 38943 ft 547 kts 110°
2026-04-26 20:42 45.58940 -108.42761 38908 ft 548 kts 109°
2026-04-26 20:43 45.56777 -108.32322 38900 ft 548 kts 110°
2026-04-26 20:43 45.54610 -108.21940 38890 ft 548 kts 110°
2026-04-26 20:44 45.52426 -108.11510 38884 ft 548 kts 110°
2026-04-26 20:44 45.50234 -108.01105 38872 ft 548 kts 110°
2026-04-26 20:45 45.47799 -107.90833 38870 ft 546 kts 112°
2026-04-26 20:45 45.45341 -107.80590 38875 ft 546 kts 112°
2026-04-26 20:46 45.42868 -107.70375 38879 ft 546 kts 112°
2026-04-26 20:46 45.40390 -107.60164 38863 ft 545 kts 112°
2026-04-26 20:47 45.37902 -107.49967 38855 ft 544 kts 112°
2026-04-26 20:47 45.35410 -107.39803 38847 ft 544 kts 113°
2026-04-26 20:48 45.32928 -107.29716 38849 ft 543 kts 113°
2026-04-26 20:48 45.30423 -107.19594 38837 ft 543 kts 113°
2026-04-26 20:49 45.27916 -107.09483 38835 ft 542 kts 113°
2026-04-26 20:49 45.25396 -106.99406 38826 ft 542 kts 113°
2026-04-26 20:50 45.22875 -106.89328 38823 ft 542 kts 114°
2026-04-26 20:50 45.20339 -106.79263 38823 ft 541 kts 114°
2026-04-26 20:51 45.17814 -106.69266 38821 ft 540 kts 114°
2026-04-26 20:51 45.15265 -106.59252 38816 ft 540 kts 114°
2026-04-26 20:52 45.12720 -106.49241 38829 ft 540 kts 114°
2026-04-26 20:52 45.10157 -106.39245 38831 ft 539 kts 114°
2026-04-26 20:53 45.07594 -106.29279 38828 ft 540 kts 114°
2026-04-26 20:53 45.05015 -106.19290 38825 ft 539 kts 114°
2026-04-26 20:54 45.02431 -106.09336 38818 ft 539 kts 114°
2026-04-26 20:54 44.99814 -105.99405 38795 ft 537 kts 117°
2026-04-26 20:55 44.96716 -105.89898 38790 ft 534 kts 120°
2026-04-26 20:55 44.93600 -105.80327 38819 ft 536 kts 118°
2026-04-26 20:56 44.90494 -105.70780 38814 ft 535 kts 120°
2026-04-26 20:56 44.87348 -105.61265 38803 ft 534 kts 119°
2026-04-26 20:57 44.84228 -105.51717 38811 ft 536 kts 119°
2026-04-26 20:57 44.81074 -105.42211 38804 ft 535 kts 120°
2026-04-26 20:58 44.77949 -105.32773 38815 ft 536 kts 120°
2026-04-26 20:58 44.74788 -105.23280 38815 ft 535 kts 120°
2026-04-26 20:59 44.71613 -105.13780 38823 ft 536 kts 120°
2026-04-26 20:59 44.68456 -105.04353 38822 ft 536 kts 120°
2026-04-26 21:00 44.65267 -104.94882 38816 ft 536 kts 120°
2026-04-26 21:00 44.62074 -104.85415 38819 ft 536 kts 120°
2026-04-26 21:01 44.58870 -104.75972 38818 ft 538 kts 120°
2026-04-26 21:01 44.55646 -104.66477 38817 ft 539 kts 120°
2026-04-26 21:02 44.52405 -104.56991 38815 ft 539 kts 120°
2026-04-26 21:02 44.49162 -104.47512 38814 ft 539 kts 120°
2026-04-26 21:03 44.45929 -104.38105 38804 ft 539 kts 120°
2026-04-26 21:03 44.42671 -104.28661 38823 ft 539 kts 120°
2026-04-26 21:04 44.39406 -104.19218 38826 ft 538 kts 120°
2026-04-26 21:04 44.36129 -104.09790 38825 ft 538 kts 120°
2026-04-26 21:05 44.32854 -104.00379 38830 ft 538 kts 121°
2026-04-26 21:05 44.29566 -103.90988 38828 ft 538 kts 121°
2026-04-26 21:06 44.26299 -103.81676 38825 ft 539 kts 121°
2026-04-26 21:06 44.23002 -103.72308 38834 ft 538 kts 121°
2026-04-26 21:07 44.19689 -103.62937 38851 ft 538 kts 121°
2026-04-26 21:07 44.16376 -103.53585 38851 ft 537 kts 121°
2026-04-26 21:08 44.13057 -103.44258 38856 ft 537 kts 121°
2026-04-26 21:08 44.09731 -103.34943 38870 ft 538 kts 121°
2026-04-26 21:09 44.06420 -103.25697 38871 ft 537 kts 121°
2026-04-26 21:09 44.03079 -103.16399 38868 ft 537 kts 121°
2026-04-26 21:10 43.99734 -103.07127 38887 ft 536 kts 121°
2026-04-26 21:10 43.96480 -102.97798 38880 ft 538 kts 118°
2026-04-26 21:11 43.93459 -102.88309 38885 ft 537 kts 119°
2026-04-26 21:11 43.90384 -102.78855 38887 ft 536 kts 119°
2026-04-26 21:12 43.87357 -102.69482 38884 ft 535 kts 119°
2026-04-26 21:12 43.84287 -102.60077 38885 ft 535 kts 119°
2026-04-26 21:13 43.81230 -102.50709 38880 ft 532 kts 120°
2026-04-26 21:13 43.78148 -102.41345 38874 ft 534 kts 119°
2026-04-26 21:14 43.75102 -102.32012 39020 ft 528 kts 119°
2026-04-26 21:14 43.73615 -102.27501 40103 ft 504 kts 120°
2026-04-26 21:14 43.72179 -102.23161 40803 ft 490 kts 120°
2026-04-26 21:15 43.69296 -102.14509 40875 ft 511 kts 120°
2026-04-26 21:15 43.66293 -102.05452 40870 ft 527 kts 119°
2026-04-26 21:16 43.63193 -101.96139 40891 ft 539 kts 119°
2026-04-26 21:16 43.60027 -101.86673 40902 ft 542 kts 119°
2026-04-26 21:17 43.56857 -101.77269 40882 ft 543 kts 120°
2026-04-26 21:17 43.53680 -101.67779 40888 ft 544 kts 119°
2026-04-26 21:18 43.50461 -101.58317 40873 ft 547 kts 120°
2026-04-26 21:18 43.47262 -101.48851 40877 ft 546 kts 119°
2026-04-26 21:19 43.44048 -101.39367 40879 ft 543 kts 120°
2026-04-26 21:19 43.40798 -101.29926 40860 ft 546 kts 120°
2026-04-26 21:20 43.37584 -101.20543 40857 ft 546 kts 120°
2026-04-26 21:20 43.34353 -101.11110 40852 ft 547 kts 120°
2026-04-26 21:21 43.31082 -101.01661 40857 ft 547 kts 120°
2026-04-26 21:21 43.27821 -100.92226 40860 ft 547 kts 120°
2026-04-26 21:22 43.25091 -100.84383 40860 ft 548 kts 120°
2026-04-26 21:22 43.21806 -100.74949 40861 ft 548 kts 120°
2026-04-26 21:23 43.16324 -100.59296 40854 ft 548 kts 120°
2026-04-26 21:23 43.13553 -100.51416 40856 ft 548 kts 120°
2026-04-26 21:24 43.10239 -100.42024 40858 ft 548 kts 120°
2026-04-26 21:24 43.06941 -100.32702 40858 ft 548 kts 120°
2026-04-26 21:25 43.03602 -100.23304 40858 ft 548 kts 121°
2026-04-26 21:25 43.00261 -100.13928 40861 ft 549 kts 121°
2026-04-26 21:26 42.96908 -100.04550 40872 ft 549 kts 121°
2026-04-26 21:26 42.93566 -99.95234 40877 ft 550 kts 121°
2026-04-26 21:27 42.90194 -99.85866 40874 ft 550 kts 121°
2026-04-26 21:27 42.86809 -99.76496 40876 ft 550 kts 121°
2026-04-26 21:28 42.83419 -99.67139 40869 ft 551 kts 121°
2026-04-26 21:28 42.80018 -99.57787 40882 ft 550 kts 121°
2026-04-26 21:29 42.76612 -99.48451 40884 ft 550 kts 121°
2026-04-26 21:29 42.73195 -99.39117 40875 ft 551 kts 121°
2026-04-26 21:30 42.69788 -99.29838 40877 ft 551 kts 121°
2026-04-26 21:30 42.66353 -99.20514 40878 ft 551 kts 121°
2026-04-26 21:31 42.62910 -99.11203 40869 ft 552 kts 121°
2026-04-26 21:31 42.59456 -99.01889 40882 ft 551 kts 121°
2026-04-26 21:32 42.56014 -98.92644 40869 ft 552 kts 121°
2026-04-26 21:32 42.52546 -98.83349 40873 ft 552 kts 121°
2026-04-26 21:33 42.49066 -98.74064 40872 ft 553 kts 121°
2026-04-26 21:33 42.45466 -98.64872 40857 ft 551 kts 124°
2026-04-26 21:34 42.41633 -98.55868 40873 ft 551 kts 124°
2026-04-26 21:34 42.37843 -98.46843 40878 ft 552 kts 124°
2026-04-26 21:35 42.34032 -98.37890 40851 ft 552 kts 124°
2026-04-26 21:35 42.30208 -98.28878 40859 ft 553 kts 124°
2026-04-26 21:36 42.26350 -98.19844 40860 ft 553 kts 124°
2026-04-26 21:36 42.22502 -98.10847 40846 ft 553 kts 124°
2026-04-26 21:37 42.18643 -98.01860 40845 ft 554 kts 124°
2026-04-26 21:37 42.14771 -97.92862 40848 ft 554 kts 124°
2026-04-26 21:38 42.10920 -97.83948 40847 ft 554 kts 125°
2026-04-26 21:38 42.07038 -97.74982 40844 ft 554 kts 125°
2026-04-26 21:39 42.03150 -97.66034 40841 ft 553 kts 125°
2026-04-26 21:39 41.99255 -97.57095 40844 ft 553 kts 125°
2026-04-26 21:40 41.95352 -97.48171 40848 ft 555 kts 125°
2026-04-26 21:40 41.91458 -97.39282 40845 ft 555 kts 125°
2026-04-26 21:41 41.87531 -97.30352 40849 ft 555 kts 125°
2026-04-26 21:41 41.83599 -97.21434 40836 ft 555 kts 125°
2026-04-26 21:42 41.79666 -97.12542 40838 ft 555 kts 125°
2026-04-26 21:42 41.75718 -97.03645 40835 ft 555 kts 125°
2026-04-26 21:43 41.71763 -96.94753 40828 ft 555 kts 126°
2026-04-26 21:43 41.67799 -96.85875 40827 ft 555 kts 126°
2026-04-26 21:44 41.63830 -96.77002 40830 ft 555 kts 126°
2026-04-26 21:44 41.59855 -96.68154 40815 ft 556 kts 126°
2026-04-26 21:45 41.55900 -96.59362 40810 ft 555 kts 126°
2026-04-26 21:45 41.51913 -96.50539 40813 ft 555 kts 126°
2026-04-26 21:46 41.47910 -96.41696 40809 ft 555 kts 126°
2026-04-26 21:46 41.43930 -96.32934 40810 ft 555 kts 126°
2026-04-26 21:47 41.39919 -96.24127 40811 ft 555 kts 126°
2026-04-26 21:47 41.35905 -96.15341 40788 ft 555 kts 126°
2026-04-26 21:48 41.31887 -96.06570 40795 ft 555 kts 126°
2026-04-26 21:48 41.27860 -95.97808 40806 ft 555 kts 126°
2026-04-26 21:49 41.23838 -95.89083 40808 ft 556 kts 126°
2026-04-26 21:49 41.19796 -95.80330 40798 ft 556 kts 126°
2026-04-26 21:50 41.16509 -95.72968 40764 ft 561 kts 121°
2026-04-26 21:50 41.13015 -95.61753 40799 ft 564 kts 115°
2026-04-26 21:51 41.09967 -95.52174 40800 ft 563 kts 117°
2026-04-26 21:51 41.06972 -95.42639 40804 ft 564 kts 115°
2026-04-26 21:52 41.03949 -95.33052 40811 ft 564 kts 117°
2026-04-26 21:52 41.00894 -95.23472 40805 ft 564 kts 116°
2026-04-26 21:53 40.97857 -95.13882 40808 ft 564 kts 117°
2026-04-26 21:53 40.94788 -95.04328 40822 ft 565 kts 116°
2026-04-26 21:54 40.91729 -94.94749 40826 ft 565 kts 116°
2026-04-26 21:54 40.88662 -94.85248 40839 ft 565 kts 116°
2026-04-26 21:55 40.85579 -94.75677 40836 ft 566 kts 116°
2026-04-26 21:55 40.82477 -94.66123 40846 ft 565 kts 116°
2026-04-26 21:56 40.79372 -94.56566 40846 ft 567 kts 116°
2026-04-26 21:56 40.76255 -94.47017 40851 ft 567 kts 117°
2026-04-26 21:57 40.73129 -94.37468 40851 ft 567 kts 117°
2026-04-26 21:57 40.70010 -94.27980 40850 ft 568 kts 117°
2026-04-26 21:58 40.66864 -94.18434 40855 ft 568 kts 117°
2026-04-26 21:58 40.63710 -94.08903 40854 ft 568 kts 117°
2026-04-26 21:59 40.60541 -93.99362 40875 ft 569 kts 117°
2026-04-26 21:59 40.56717 -93.90327 40867 ft 563 kts 127°
2026-04-26 22:00 40.52480 -93.81640 40871 ft 564 kts 126°
2026-04-26 22:00 40.48403 -93.72815 40847 ft 563 kts 126°
2026-04-26 22:01 40.44227 -93.64195 40846 ft 564 kts 126°
2026-04-26 22:01 40.40101 -93.55420 40849 ft 563 kts 126°
2026-04-26 22:02 40.36614 -93.48188 40842 ft 565 kts 126°
2026-04-26 22:02 40.31748 -93.37994 40860 ft 564 kts 126°
2026-04-26 22:03 40.27563 -93.29316 40862 ft 563 kts 126°
2026-04-26 22:03 40.23404 -93.20673 40867 ft 564 kts 126°
2026-04-26 22:04 40.19210 -93.11999 40874 ft 564 kts 126°
2026-04-26 22:04 40.15006 -93.03325 40875 ft 564 kts 126°
2026-04-26 22:05 40.10795 -92.94656 40873 ft 564 kts 126°
2026-04-26 22:05 40.06572 -92.85996 40879 ft 565 kts 126°
2026-04-26 22:06 40.02344 -92.77339 40880 ft 565 kts 126°
2026-04-26 22:06 39.98122 -92.68728 40885 ft 567 kts 126°
2026-04-26 22:07 39.93862 -92.60057 40885 ft 567 kts 126°
2026-04-26 22:07 39.90314 -92.52854 40880 ft 568 kts 126°
2026-04-26 22:08 39.85346 -92.42795 40882 ft 568 kts 126°
2026-04-26 22:08 39.81059 -92.34144 40883 ft 568 kts 126°
2026-04-26 22:09 39.76771 -92.25511 40883 ft 568 kts 126°
2026-04-26 22:09 39.72471 -92.16880 40882 ft 567 kts 126°
2026-04-26 22:10 39.68197 -92.08326 40891 ft 568 kts 126°
2026-04-26 22:10 39.63895 -91.99734 40887 ft 568 kts 126°
2026-04-26 22:11 39.59571 -91.91127 40884 ft 568 kts 126°
2026-04-26 22:11 39.55983 -91.84000 40880 ft 568 kts 126°
2026-04-26 22:12 39.51651 -91.75418 40893 ft 568 kts 126°
2026-04-26 22:12 39.47310 -91.66840 40894 ft 569 kts 126°
2026-04-26 22:13 39.42965 -91.58277 40894 ft 569 kts 126°
2026-04-26 22:13 39.38641 -91.49780 40894 ft 569 kts 126°
2026-04-26 22:14 39.34289 -91.41249 40894 ft 569 kts 126°
2026-04-26 22:14 39.29920 -91.32710 40897 ft 569 kts 126°
2026-04-26 22:15 39.25547 -91.24184 40896 ft 569 kts 127°
2026-04-26 22:15 39.21173 -91.15681 40909 ft 569 kts 126°
2026-04-26 22:16 39.16778 -91.07157 40909 ft 569 kts 127°
2026-04-26 22:16 39.12382 -90.98655 40909 ft 570 kts 127°
2026-04-26 22:17 39.08015 -90.90230 40909 ft 570 kts 127°
2026-04-26 22:17 39.03605 -90.81746 40901 ft 570 kts 127°
2026-04-26 22:18 38.99188 -90.73272 40907 ft 570 kts 127°
2026-04-26 22:18 38.94755 -90.64790 40912 ft 571 kts 127°
2026-04-26 22:19 38.90323 -90.56327 40910 ft 571 kts 127°
2026-04-26 22:19 38.86037 -90.47812 40880 ft 574 kts 120°
2026-04-26 22:20 38.82984 -90.38338 40917 ft 575 kts 110°
2026-04-26 22:20 38.80200 -90.28701 40935 ft 576 kts 114°
2026-04-26 22:21 38.77150 -90.19200 40935 ft 576 kts 112°
2026-04-26 22:21 38.74318 -90.09596 40926 ft 576 kts 113°
2026-04-26 22:22 38.71288 -90.00068 40934 ft 577 kts 112°
2026-04-26 22:22 38.68394 -89.90493 40937 ft 576 kts 112°
2026-04-26 22:23 38.65395 -89.80981 40938 ft 577 kts 112°
2026-04-26 22:23 38.62451 -89.71431 40939 ft 577 kts 112°
2026-04-26 22:24 38.59475 -89.61967 40937 ft 576 kts 113°
2026-04-26 22:24 38.56499 -89.52445 40939 ft 576 kts 112°
2026-04-26 22:25 38.53507 -89.42952 40944 ft 576 kts 112°
2026-04-26 22:25 38.50518 -89.33480 40767 ft 565 kts 112°
2026-04-26 22:26 38.49056 -89.28853 40241 ft 558 kts 113°
2026-04-26 22:26 38.47611 -89.24308 39732 ft 559 kts 113°
2026-04-26 22:26 38.46142 -89.19693 39232 ft 563 kts 113°
2026-04-26 22:26 38.44666 -89.15046 38745 ft 566 kts 113°
2026-04-26 22:27 38.43185 -89.10389 38263 ft 565 kts 113°
2026-04-26 22:27 38.41899 -89.05672 37744 ft 564 kts 105°
2026-04-26 22:27 38.41111 -89.00773 37223 ft 562 kts 97°
2026-04-26 22:27 38.40761 -88.95835 36734 ft 558 kts 91°
2026-04-26 22:28 38.40622 -88.90904 36260 ft 555 kts 89°
2026-04-26 22:28 38.40531 -88.85988 35782 ft 556 kts 90°
2026-04-26 22:28 38.40236 -88.81024 35291 ft 565 kts 94°
2026-04-26 22:28 38.39798 -88.76089 34813 ft 566 kts 95°
2026-04-26 22:29 38.39450 -88.71105 34326 ft 563 kts 92°
2026-04-26 22:29 38.39242 -88.66121 33836 ft 561 kts 91°
2026-04-26 22:29 38.38994 -88.61171 33348 ft 561 kts 92°
2026-04-26 22:29 38.38627 -88.56194 32854 ft 561 kts 94°
2026-04-26 22:30 38.38265 -88.51242 32368 ft 555 kts 93°
2026-04-26 22:30 38.37992 -88.46363 31885 ft 552 kts 91°
2026-04-26 22:30 38.37733 -88.41532 31400 ft 551 kts 92°
2026-04-26 22:30 38.37410 -88.36668 30975 ft 549 kts 93°
2026-04-26 22:31 38.37065 -88.31864 30974 ft 538 kts 93°
2026-04-26 22:31 38.36769 -88.27233 30963 ft 520 kts 92°
2026-04-26 22:31 38.36225 -88.18095 30961 ft 515 kts 92°
2026-04-26 22:32 38.35622 -88.09006 30977 ft 511 kts 92°
2026-04-26 22:32 38.35054 -87.99982 30974 ft 509 kts 92°
2026-04-26 22:33 38.34162 -87.86494 30976 ft 520 kts 92°
2026-04-26 22:33 38.33858 -87.81836 30987 ft 534 kts 92°
2026-04-26 22:34 38.33544 -87.77082 30988 ft 547 kts 92°
2026-04-26 22:34 38.32874 -87.67298 30993 ft 559 kts 92°
2026-04-26 22:35 38.32207 -87.57417 30986 ft 560 kts 93°
2026-04-26 22:35 38.31520 -87.47536 30990 ft 560 kts 93°
2026-04-26 22:36 38.30829 -87.37646 30987 ft 559 kts 93°
2026-04-26 22:36 38.30133 -87.27808 30987 ft 558 kts 93°
2026-04-26 22:36 38.29782 -87.22872 30849 ft 561 kts 93°
2026-04-26 22:37 38.29425 -87.17914 30058 ft 560 kts 93°
2026-04-26 22:37 38.29064 -87.12995 29324 ft 557 kts 93°
2026-04-26 22:37 38.28709 -87.08135 28591 ft 557 kts 93°
2026-04-26 22:37 38.28364 -87.03419 27874 ft 519 kts 94°
2026-04-26 22:38 38.28036 -86.98965 27202 ft 496 kts 93°
2026-04-26 22:38 38.27720 -86.94650 26555 ft 482 kts 94°
2026-04-26 22:38 38.27407 -86.90395 25918 ft 481 kts 94°
2026-04-26 22:38 38.27090 -86.86155 25278 ft 478 kts 94°
2026-04-26 22:39 38.26778 -86.82021 24652 ft 473 kts 94°
2026-04-26 22:39 38.26465 -86.77880 24026 ft 467 kts 94°
2026-04-26 22:39 38.26157 -86.73781 23409 ft 463 kts 94°
2026-04-26 22:39 38.26176 -86.69744 22926 ft 444 kts 80°
2026-04-26 22:40 38.26802 -86.65944 23004 ft 444 kts 76°
2026-04-26 22:40 38.27506 -86.62023 23035 ft 463 kts 75°
2026-04-26 22:40 38.28249 -86.57965 23020 ft 475 kts 75°
2026-04-26 22:40 38.28986 -86.53850 23019 ft 478 kts 76°
2026-04-26 22:41 38.29708 -86.49710 23036 ft 480 kts 76°
2026-04-26 22:41 38.30441 -86.45563 23022 ft 481 kts 76°
2026-04-26 22:41 38.31177 -86.41457 23032 ft 481 kts 75°
2026-04-26 22:41 38.31917 -86.37304 23024 ft 481 kts 76°
2026-04-26 22:42 38.32646 -86.33147 23024 ft 480 kts 76°
2026-04-26 22:42 38.33373 -86.28980 22850 ft 482 kts 76°
2026-04-26 22:42 38.34102 -86.24824 22447 ft 478 kts 76°
2026-04-26 22:42 38.34903 -86.20739 22007 ft 472 kts 70°
2026-04-26 22:43 38.36326 -86.17031 22022 ft 466 kts 59°
2026-04-26 22:43 38.37917 -86.13406 21979 ft 470 kts 59°
2026-04-26 22:43 38.39517 -86.09779 21634 ft 468 kts 59°
2026-04-26 22:43 38.41093 -86.06160 21216 ft 465 kts 59°
2026-04-26 22:44 38.42651 -86.02559 20801 ft 462 kts 60°
2026-04-26 22:44 38.44204 -85.98985 20403 ft 459 kts 60°
2026-04-26 22:44 38.45750 -85.95441 19995 ft 455 kts 60°
2026-04-26 22:44 38.47282 -85.91920 19591 ft 452 kts 60°
2026-04-26 22:45 38.48798 -85.88415 19119 ft 450 kts 60°
2026-04-26 22:45 38.50303 -85.84933 18701 ft 446 kts 60°
2026-04-26 22:45 38.51801 -85.81474 18312 ft 444 kts 60°
2026-04-26 22:45 38.53290 -85.78034 17918 ft 441 kts 60°
2026-04-26 22:46 38.54748 -85.74651 17532 ft 440 kts 60°
2026-04-26 22:46 38.56224 -85.71227 17151 ft 438 kts 60°
2026-04-26 22:46 38.57695 -85.67813 16764 ft 437 kts 61°
2026-04-26 22:46 38.59157 -85.64417 16387 ft 436 kts 61°
2026-04-26 22:47 38.60616 -85.61027 16007 ft 435 kts 61°
2026-04-26 22:47 38.62067 -85.57649 15626 ft 431 kts 61°
2026-04-26 22:47 38.63512 -85.54288 15248 ft 429 kts 62°
2026-04-26 22:47 38.64942 -85.50941 14868 ft 428 kts 62°
2026-04-26 22:48 38.66368 -85.47607 14492 ft 425 kts 62°
2026-04-26 22:48 38.67783 -85.44301 14127 ft 422 kts 62°
2026-04-26 22:48 38.69348 -85.41134 13289 ft 419 kts 55°
2026-04-26 22:48 38.71083 -85.38199 12293 ft 407 kts 53°
2026-04-26 22:49 38.72760 -85.35415 11703 ft 396 kts 54°
2026-04-26 22:49 38.74399 -85.32563 11269 ft 396 kts 55°
2026-04-26 22:49 38.76018 -85.29694 10845 ft 395 kts 55°
2026-04-26 22:49 38.77581 -85.26903 10410 ft 368 kts 57°
2026-04-26 22:50 38.78567 -85.24047 9920 ft 338 kts 76°
2026-04-26 22:50 38.78816 -85.21162 9468 ft 314 kts 88°
2026-04-26 22:50 38.78901 -85.18452 9065 ft 295 kts 88°
2026-04-26 22:50 38.78984 -85.15895 8641 ft 282 kts 88°
2026-04-26 22:51 38.79062 -85.13363 8305 ft 281 kts 88°
2026-04-26 22:51 38.79135 -85.10871 8053 ft 279 kts 88°
2026-04-26 22:51 38.79209 -85.08396 7811 ft 278 kts 88°
2026-04-26 22:51 38.79281 -85.05931 7556 ft 276 kts 88°
2026-04-26 22:52 38.79358 -85.03476 7307 ft 275 kts 88°
2026-04-26 22:52 38.79428 -85.01070 7077 ft 272 kts 88°
2026-04-26 22:52 38.79520 -84.98646 6916 ft 272 kts 84°
2026-04-26 22:52 38.80013 -84.96315 6681 ft 272 kts 71°
2026-04-26 22:53 38.80624 -84.94007 6462 ft 273 kts 71°
2026-04-26 22:53 38.81201 -84.91695 6226 ft 272 kts 72°
2026-04-26 22:53 38.81761 -84.89381 5965 ft 271 kts 72°
2026-04-26 22:53 38.82328 -84.87102 5697 ft 267 kts 72°
2026-04-26 22:54 38.82889 -84.84820 5435 ft 268 kts 72°
2026-04-26 22:54 38.83428 -84.82602 5182 ft 252 kts 72°
2026-04-26 22:54 38.83945 -84.80531 4938 ft 238 kts 72°
2026-04-26 22:54 38.84415 -84.78564 4709 ft 225 kts 72°
2026-04-26 22:55 38.84886 -84.76692 4508 ft 222 kts 72°
2026-04-26 22:55 38.85346 -84.74813 4314 ft 219 kts 72°
2026-04-26 22:55 38.85797 -84.72949 4120 ft 219 kts 72°
2026-04-26 22:55 38.86251 -84.71116 3925 ft 220 kts 71°
2026-04-26 22:56 38.86706 -84.69294 3718 ft 206 kts 71°
2026-04-26 22:56 38.87429 -84.67818 3453 ft 191 kts 42°
2026-04-26 22:56 38.88560 -84.67049 3313 ft 181 kts 15°
2026-04-26 22:56 38.89785 -84.66957 3195 ft 172 kts
2026-04-26 22:57 38.90990 -84.66928 3036 ft 175 kts
2026-04-26 22:57 38.92204 -84.66922 3005 ft 172 kts
2026-04-26 22:57 38.93356 -84.66920 2826 ft 154 kts
2026-04-26 22:57 38.94342 -84.66916 2624 ft 133 kts
2026-04-26 22:58 38.94952 -84.66914 2509 ft 134 kts
2026-04-26 22:58 38.96157 -84.66904 2288 ft 127 kts
2026-04-26 22:58 38.96749 -84.66902 2182 ft 126 kts
2026-04-26 22:58 38.97623 -84.66898 2014 ft 125 kts
2026-04-26 22:59 38.98498 -84.66900 1838 ft 125 kts
2026-04-26 22:59 38.99355 -84.66897 1679 ft 124 kts
2026-04-26 22:59 39.00214 -84.66889 1527 ft 124 kts
2026-04-26 22:59 39.01082 -84.66886 1347 ft 125 kts
2026-04-26 23:00 39.01954 -84.66886 1195 ft 123 kts
2026-04-26 23:00 39.02804 -84.66881 1008 ft 123 kts
2026-04-26 23:00 39.03653 -84.66873 883 ft 117 kts
2026-04-26 23:00 39.04258 -84.66872 878 ft 46 kts 359°
2026-04-26 23:01 39.04466 -84.66873 880 ft 23 kts
2026-04-26 23:01 39.04522 -84.66802 881 ft 12 kts 93°
2026-04-26 23:01 39.04520 -84.66679 878 ft 15 kts 90°
2026-04-26 23:01 39.04520 -84.66548 878 ft 14 kts 90°
2026-04-26 23:02 39.04519 -84.66413 877 ft 16 kts 90°
2026-04-26 23:02 39.04519 -84.66270 877 ft 15 kts 90°
2026-04-26 23:02 39.04519 -84.66157 877 ft 12 kts 90°
2026-04-26 23:02 39.04519 -84.66059 877 ft 10 kts 90°
2026-04-26 23:03 39.04513 -84.65980 876 ft 8 kts 114°
2026-04-26 23:03 39.04483 -84.65914 876 ft 10 kts 121°
2026-04-26 23:03 39.04462 -84.65825 876 ft 12 kts 91°
2026-04-26 23:03 39.04462 -84.65707 876 ft 13 kts 90°
2026-04-26 23:04 39.04460 -84.65609 876 ft 10 kts 106°
2026-04-26 23:04 39.04400 -84.65590 876 ft 11 kts 192°
2026-04-26 23:04 39.04346 -84.65611 875 ft 5 kts 211°
2026-04-26 23:04 39.04345 -84.65619 875 ft 0 kts 267°